This demonstration page uses our WeatherBlox Daily Observations layout. Learn more.

Left ArrowRight Arrow

Hourly Observations for July 7, 2021

Temp ( °F °C ) Dew Point ( °F °C ) Humidity (%) Winds ( mph kmh ) Pressure ( in mb ) Visibility ( mi km ) Precip ( " mm )
12:29 am 00:29 Mostly Cloudy 68 20 66 19 94 94 N 9 15 30.00 1016 10 16 0.00 0.00
12:56 am 00:56 Cloudy 68 20 65 18.3 90 90 N 13 20 30.01 1016 10 16 0.00 0.00
1:52 am 01:52 Cloudy 68 20 66 19 94 94 NNE 8 13 30.00 1016 10 16 0.00 0.00
1:56 am 01:56 Cloudy 68 20 66 18.9 93 93 N 7 11 30.01 1016 10 16 0.00 0.00
2:56 am 02:56 Cloudy 68 20 65 18.3 90 90 N 6 9 30.02 1017 10 16 0.00 0.00
3:04 am 03:04 Cloudy 68 20 66 19 94 94 N 5 7 29.99 1015 10 16 0.00 0.00
3:15 am 03:15 Cloudy 68 20 66 19 94 94 NNW 6 9 29.99 1015 10 16 0.00 0.00
3:56 am 03:56 Cloudy 68 20 66 18.9 93 93 NNW 7 11 30.01 1016 10 16 0.00 0.00
4:04 am 04:04 Cloudy 68 20 66 19 94 94 N 6 9 29.97 1015 10 16 0.00 0.00
4:40 am 04:40 Cloudy 68 20 66 19 94 94 N 9 15 29.97 1015 10 16 0.00 0.00
4:49 am 04:49 Cloudy 68 20 66 19 94 94 N 8 13 29.98 1015 10 16 0.00 0.00
4:56 am 04:56 Cloudy 68 20 66 18.9 93 93 N 12 19 30.01 1016 10 16 0.00 0.00
5:21 am 05:21 Cloudy 68 20 66 19 94 94 N 12 19 29.98 1015 10 16 0.00 0.00
5:41 am 05:41 Cloudy 68 20 64 18 88 88 N 10 17 29.98 1015 10 16 0.00 0.00
5:56 am 05:56 Cloudy 67 19.4 65 18.3 93 93 N 10 17 30.01 1016 10 16 0.00 0.00
6:04 am 06:04 Cloudy 66 19 64 18 94 94 N 9 15 29.98 1015 10 16 0.00 0.00
6:14 am 06:14 Cloudy 66 19 64 18 94 94 N 10 17 29.99 1016 10 16 0.00 0.00
6:56 am 06:56 Cloudy 67 19.4 65 18.3 93 93 N 13 20 30.02 1017 10 16 0.00 0.00
7:15 am 07:15 Cloudy 66 19 64 18 94 94 N 13 20 30.01 1016 10 16 0.00 0.00
7:37 am 07:37 Cloudy 66 19 64 18 94 94 N 13 20 30.01 1016 10 16 0.00 0.00
7:45 am 07:45 Cloudy 66 19 64 18 94 94 N 12 19 30.01 1016 10 16 0.00 0.00
7:52 am 07:52 Cloudy 66 19 64 18 94 94 N 12 19 30.01 1016 10 16 0.00 0.00
7:56 am 07:56 Cloudy 67 19.4 65 18.3 93 93 N 13 20 30.03 1017 10 16 0.00 0.00
8:39 am 08:39 Cloudy 68 20 64 18 88 88 N 12 19 30.01 1016 10 16 0.00 0.00
8:47 am 08:47 Cloudy 68 20 64 18 88 88 N 13 20 30.01 1016 10 16 0.00 0.00
8:56 am 08:56 Cloudy 68 20 64 17.8 87 87 N 9 15 30.04 1017 10 16 0.00 0.00
9:18 am 09:18 Cloudy 70 21 64 18 83 83 N 12 19 30.01 1016 10 16 0.00 0.00
9:45 am 09:45 Cloudy 70 21 64 18 83 83 N 10 17 30.01 1016 10 16 0.00 0.00
9:56 am 09:56 Cloudy 70 21.1 64 17.8 82 82 N 10 17 30.04 1017 10 16 0.00 0.00
10:56 am 10:56 Cloudy 71 21.7 62 16.7 73 73 N 13 20 30.05 1018 10 16 0.00 0.00
11:56 am 11:56 Cloudy 72 22.2 62 16.7 71 71 N 17 28 30.05 1018 10 16 0.00 0.00
12:56 pm 12:56 Cloudy 73 22.8 62 16.7 69 69 NNE 12 19 30.05 1018 10 16 0.00 0.00
1:56 pm 13:56 Cloudy 73 22.8 62 16.7 69 69 NNW 8 13 30.04 1017 10 16 0.00 0.00
2:29 pm 14:29 Cloudy 75 24 61 16 61 61 NNE 8 13 29.98 1015 10 16 0.00 0.00
2:56 pm 14:56 Cloudy 74 23.3 62 16.7 67 67 N 7 11 30.03 1017 10 16 0.00 0.00
3:18 pm 15:18 Cloudy 75 24 63 17 65 65 N 10 17 29.97 1015 10 16 0.00 0.00
3:38 pm 15:38 Mostly Cloudy 75 24 63 17 65 65 NW 7 11 29.97 1015 10 16 0.00 0.00
3:56 pm 15:56 Partly Cloudy 76 24.4 62 16.7 62 62 N 5 7 30.01 1016 10 16 0.00 0.00
4:56 pm 16:56 Mostly Cloudy 76 24.4 62 16.7 62 62 NE 7 11 30.00 1016 10 16 0.00 0.00
5:56 pm 17:56 Sunny 77 25 62 16.7 60 60 N 5 7 29.98 1015 10 16 0.00 0.00
6:56 pm 18:56 Sunny 77 25 63 17.2 62 62 ENE 6 9 29.96 1015 10 16 0.00 0.00
7:56 pm 19:56 Sunny 75 23.9 64 17.8 69 69 ESE 7 11 29.97 1015 10 16 0.00 0.00
8:56 pm 20:56 Sunny 71 21.7 65 18.3 81 81 E 5 7 29.98 1015 10 16 0.00 0.00
9:56 pm 21:56 Clear 67 19.4 64 17.8 91 91 E 7 11 29.97 1015 10 16 0.00 0.00
10:56 pm 22:56 Clear 66 18.9 63 17.2 90 90 ESE 6 9 29.98 1015 10 16 0.00 0.00
11:56 pm 23:56 Clear 65 18.3 62 16.7 90 90 ESE 8 13 29.98 1015 10 16 0.00 0.00

Powered by AerisWeather